Location: Del Amo
(33.8464°N, 118.2104°W)
Time: 19:36:45
(UTC+00:00)

Vanguard 3 - Pass Details

Date: 22 September 2024
Orbit: 507 x 3224 km, 33.4° (Epoch: 05 October)

Event Time Altitude Azimuth Distance (km) Brightness Sun altitude
Exits shadow 13:39:10 - 255° (WSW) 6,024 10.9 -1.3°
Rises 13:39:15 0° 255° (WSW) 6,005 10.9 -1.3°
Reaches altitude 10° 13:42:42 10° 255° (WSW) 5,274 10.7 -0.6°
Maximum altitude 14:00:05 85° 170° (S) 3,194 10.3 3.0°
Drops below altitude 10° 14:19:38 10° 85° (E) 5,821 13.8 7.1°
Sets 14:23:40 0° 85° (E) 6,624 13.9 7.9°
